Hourly Data Report for October 17, 2015

All times are specified in Local Standard Time (LST). Add 1 hour to adjust for Daylight Saving Time where and when it is observed.

POND INLET A
NUNAVUT

72°41'22.000" N
77°58'08.000" W
61.60 m
2403206
71095
YIO

Download Data

Hourly Data (October 2015)
Hourly Data Report for October 17, 2015
Temp Definition
°C
Dew Point Temp Definition
°C
Rel Hum Definition
%
Wind Dir Definition
10's deg

Wind Spd Definition
km/h
Visibility Definition
km
Stn Press Definition
kPa
Hmdx Definition


Wind Chill Definition


Weather Definition


TIME
00:00 Legend Double Dagger -8.6 -11.0 83 14 15 8.1 99.60   -15 Snow
01:00 Legend Double Dagger -9.5 -11.6 85 15 17 16.1 99.61   -17 LegendNANA
02:00 Legend Double Dagger -9.1 -11.4 84 14 15 16.1 99.63   -16 LegendNANA
03:00 Legend Double Dagger -9.1 -11.2 85 15 15 16.1 99.66   -16 LegendNANA
04:00 Legend Double Dagger -10.8 -13.3 82 15 18 16.1 99.69   -18 LegendNANA
05:00 Legend Double Dagger -9.8 -12.6 80 15 17 16.1 99.72   -17 LegendNANA
06:00 Legend Double Dagger -8.9 -11.4 82 15 18 16.1 99.75   -16 LegendNANA
07:00 Legend Double Dagger -8.6 -11.0 83 15 17 16.1 99.77   -15 LegendNANA
08:00 Legend Double Dagger -8.4 -11.0 82 15 21 16.1 99.76   -16 Snow
09:00 Legend Double Dagger -8.5 -10.7 84 18 18 16.1 99.76   -16 LegendNANA
10:00 Legend Double Dagger -8.3 -10.3 86 17 18 16.1 99.76   -15 Snow
11:00 Legend Double Dagger -8.1 -9.8 88 17 17 16.1 99.76   -15 LegendNANA
12:00 Legend Double Dagger -8.0 -10.3 84 18 18 16.1 99.78   -15 LegendNANA
13:00 Legend Double Dagger -8.4 -10.3 86 16 18 16.1 99.79   -15 LegendNANA
14:00 Legend Double Dagger -8.3 -10.5 84 15 21 16.1 99.79   -16 LegendNANA
15:00 Legend Double Dagger -8.2 -10.3 85 16 21 16.1 99.80   -16 LegendNANA
16:00 Legend Double Dagger -7.7 -10.5 80 24 15 16.1 99.82   -14 LegendNANA
17:00 Legend Double Dagger -7.0 -11.4 71 26 22 16.1 99.85   -14 LegendNANA
18:00 Legend Double Dagger -7.4 -12.2 69 25 13 16.1 99.85   -13 LegendNANA
19:00 Legend Double Dagger -7.8 -12.0 72 25 26 16.1 99.84   -16 LegendNANA
20:00 Legend Double Dagger -7.6 -11.9 71 26 21 16.1 99.85   -15 LegendNANA
21:00 Legend Double Dagger -7.6 -12.2 70 25 15 16.1 99.85   -14 LegendNANA
22:00 Legend Double Dagger -7.6 -11.9 72 23 15 16.1 99.86   -14 LegendNANA
23:00 Legend Double Dagger -7.7 -12.2 71 22 24 16.1 99.87   -16 LegendNANA

Notes on Data Quality.

Legend

  • E = Estimated
  • M = Missing
  • NA = Not Available
  • ‡ = Partner data that is not subject to review by the National Climate Archives
Date modified: